EUTELSAT 48D

Last updated on Sept. 20, 2020, 5:45 a.m. UTC

1 33460U 08065B   20263.75604872  .00000109  00000-0  00000-0 0  9997
2 33460   0.0207 243.5223 0004469 302.9765 132.9003  1.00273461 42933
UTC
Height (km)
Latitude
Longitude
Inclination
Orbital Period
UTC large
Height (km)
Speed (km/s)
/
Latitude / Longitude
Inclination (degrees)
Orbital Period (minutes)
Azimuth
Elevation
Range (km)
Doppler Factor
iOS Compass Heading
iOS Angle

Next 30 passes for location: Hong Kong

Rise time Rise Azimuth (degrees) Set time Set Azimuth (degrees) Duration Max altitude (degrees)

No matching passes for this satellites